EW2748 Weather Reports


Display with metric or nautical units.
time (UTC)temp
F
wind
direction
speed
MPH
gust
MPH
rain 1hr
in
rain 24hr
in
rain mn
in
humidity
%
barometer
mb
20260831153027 84 117 0.0 1.0 0.00 0.00 0.00 73 1022.3
20260831152512 84 217 0.0 2.0 0.00 0.00 0.00 75 1022.2
20260831152007 84 301 0.0 2.0 0.00 0.00 0.00 73 1022.3
20260831151518 84 264 0.0 3.0 0.00 0.00 0.00 76 1022.2
20260831151011 83 139 0.0 3.0 0.00 0.00 0.00 76 1022.2
20260831150506 83 274 0.0 4.0 0.00 0.00 0.00 75 1022.1
20260831150017 83 143 1.0 4.0 0.00 0.00 0.00 77 1022.4
20260831145510 83 104 0.0 4.0 0.00 0.00 0.00 76 1022.4
20260831145020 83 89 1.0 3.0 0.00 0.00 0.00 76 1022.4
20260831144513 82 254 0.0 4.0 0.00 0.00 0.00 76 1022.3
20260831144009 82 125 1.0 4.0 0.00 0.00 0.00 76 1022.3
20260831143517 82 124 1.0 3.0 0.00 0.00 0.00 78 1022.2
20260831143010 82 232 0.0 4.0 0.00 0.00 0.00 78 1022.2
20260831142504 82 215 0.0 4.0 0.00 0.00 0.00 78 1022.2
20260831142012 81 99 1.0 6.0 0.00 0.00 0.00 80 1022.3
20260831141531 81 162 2.0 6.0 0.00 0.00 0.00 79 1022.2
20260831141004 81 230 0.0 6.0 0.00 0.00 0.00 79 1022.3
20260831140510 81 113 2.0 6.0 0.00 0.00 0.00 80 1022.3
20260831140026 81 94 1.0 5.0 0.00 0.00 0.00 81 1022.2
20260831135514 80 147 2.0 5.0 0.00 0.00 0.00 80 1022.2
20260831135007 80 112 0.0 3.0 0.00 0.00 0.00 81 1022.2
20260831134527 80 114 1.0 3.0 0.00 0.00 0.00 81 1022.2
20260831134015 80 196 0.0 2.0 0.00 0.00 0.00 82 1022.3
20260831133505 79 200 0.0 2.0 0.00 0.00 0.00 83 1022.3
20260831133031 79 120 0.0 5.0 0.00 0.00 0.00 83 1022.3
20260831132510 79 144 0.0 5.0 0.00 0.00 0.00 84 1022.3
20260831132017 78 96 0.0 5.0 0.00 0.00 0.00 84 1022.3
20260831131517 78 131 0.0 4.0 0.00 0.00 0.00 85 1022.2
20260831131008 78 89 1.0 4.0 0.00 0.00 0.00 85 1022.2
20260831130513 77 103 0.0 2.0 0.00 0.00 0.00 86 1022.1
20260831130016 77 162 0.0 0.0 0.00 0.00 0.00 87 1021.9
20260831125511 77 162 0.0 2.0 0.00 0.00 0.00 87 1021.9
20260831125013 77 164 0.0 2.0 0.00 0.00 0.00 87 1021.8
20260831124549 77 136 0.0 1.0 0.00 0.00 0.00 87 1021.8
20260831124008 76 165 0.0 0.0 0.00 0.00 0.00 88 1021.7
20260831123510 76 132 0.0 0.0 0.00 0.00 0.00 88 1021.7
20260831123030 76 148 0.0 0.0 0.00 0.00 0.00 89 1021.7
20260831122518 76 136 0.0 0.0 0.00 0.00 0.00 89 1021.6
20260831122006 75 136 0.0 0.0 0.00 0.00 0.00 90 1021.6
20260831121528 75 136 0.0 0.0 0.00 0.00 0.00 91 1021.5
20260831121019 74 134 0.0 0.0 0.00 0.00 0.00 91 1021.4
20260831120506 74 135 0.0 0.0 0.00 0.00 0.00 92 1021.4
20260831120029 73 138 0.0 0.0 0.00 0.00 0.00 93 1021.3
20260831115514 73 138 0.0 0.0 0.00 0.00 0.00 94 1021.2
20260831115021 73 138 0.0 0.0 0.00 0.00 0.00 94 1021.2
20260831114533 73 138 0.0 0.0 0.00 0.00 0.00 94 1021.1
20260831114012 73 138 0.0 0.0 0.00 0.00 0.00 94 1021.1
20260831113514 73 138 0.0 0.0 0.00 0.00 0.00 93 1021.1
20260831113015 73 138 0.0 0.0 0.00 0.00 0.00 93 1021.0
20260831112511 73 138 0.0 0.0 0.00 0.00 0.00 94 1021.0
20260831112014 73 138 0.0 0.0 0.00 0.00 0.00 93 1020.9
20260831111533 73 138 0.0 0.0 0.00 0.00 0.00 93 1020.9
20260831110509 73 138 0.0 0.0 0.00 0.00 0.00 93 1020.8
20260831110032 73 138 0.0 0.0 0.00 0.00 0.00 92 1020.8
20260831105503 73 138 0.0 0.0 0.00 0.00 0.00 92 1020.8
20260831105012 73 138 0.0 0.0 0.00 0.00 0.00 92 1020.7
20260831104543 74 138 0.0 0.0 0.00 0.00 0.00 91 1020.6
20260831104016 74 138 0.0 0.0 0.00 0.00 0.00 91 1020.5
20260831103507 74 138 0.0 0.0 0.00 0.00 0.00 91 1020.5
20260831103029 74 138 0.0 0.0 0.00 0.00 0.00 91 1020.5
20260831102514 74 138 0.0 0.0 0.00 0.00 0.00 92 1020.3
20260831102019 74 138 0.0 0.0 0.00 0.00 0.00 92 1020.3
20260831101525 74 138 0.0 0.0 0.00 0.00 0.00 92 1020.3
20260831101015 74 138 0.0 0.0 0.00 0.00 0.00 92 1020.3
20260831100516 74 138 0.0 0.0 0.00 0.00 0.00 92 1020.2
20260831100014 73 138 0.0 0.0 0.00 0.00 0.00 93 1020.2
20260831095510 73 138 0.0 0.0 0.00 0.00 0.00 93 1020.2
20260831095015 73 138 0.0 0.0 0.00 0.00 0.00 92 1020.1
20260831094531 73 138 0.0 0.0 0.00 0.00 0.00 92 1020.1
20260831094010 74 138 0.0 0.0 0.00 0.00 0.00 91 1020.0
20260831093514 74 138 0.0 0.0 0.00 0.00 0.00 91 1019.9
20260831093040 74 138 0.0 0.0 0.00 0.00 0.00 91 1019.9
20260831092512 74 138 0.0 0.0 0.00 0.00 0.00 91 1019.9
20260831092012 74 138 0.0 0.0 0.00 0.00 0.00 90 1019.9
20260831091529 75 138 0.0 0.0 0.00 0.00 0.00 90 1019.8
20260831091021 75 138 0.0 0.0 0.00 0.00 0.00 90 1019.8
20260831090509 75 138 0.0 0.0 0.00 0.00 0.00 90 1019.8
20260831090026 75 138 0.0 0.0 0.00 0.00 0.00 90 1019.9
20260831085513 75 138 0.0 0.0 0.00 0.00 0.00 90 1019.9
20260831085019 75 138 0.0 1.0 0.00 0.00 0.00 90 1019.8
20260831084523 75 138 0.0 1.0 0.00 0.00 0.00 90 1019.8
20260831084013 75 138 0.0 1.0 0.00 0.00 0.00 90 1019.9
20260831083519 75 154 0.0 0.0 0.00 0.00 0.00 90 1019.7
20260831083036 74 154 0.0 0.0 0.00 0.00 0.00 91 1019.6
20260831082512 74 154 0.0 0.0 0.00 0.00 0.00 91 1019.7
20260831082017 74 154 0.0 0.0 0.00 0.00 0.00 91 1019.5
20260831081536 74 154 0.0 0.0 0.00 0.00 0.00 91 1019.6
20260831081015 74 154 0.0 0.0 0.00 0.00 0.00 91 1019.6
20260831080513 74 154 0.0 0.0 0.00 0.00 0.00 91 1019.6
20260831080033 74 154 0.0 0.0 0.00 0.00 0.00 92 1019.6
20260831075509 74 154 0.0 0.0 0.00 0.00 0.00 92 1019.4
20260831074537 73 154 0.0 0.0 0.00 0.00 0.00 93 1019.6
20260831074007 73 154 0.0 0.0 0.00 0.00 0.00 94 1019.6
20260831073511 73 154 0.0 0.0 0.00 0.00 0.00 94 1019.6
20260831073032 73 154 0.0 0.0 0.00 0.00 0.00 94 1019.6
20260831072502 73 154 0.0 0.0 0.00 0.00 0.00 93 1019.6
20260831072014 73 154 0.0 0.0 0.00 0.00 0.00 93 1019.7
20260831071530 73 154 0.0 0.0 0.00 0.00 0.00 93 1019.7
20260831071013 73 154 0.0 0.0 0.00 0.00 0.00 93 1019.7
20260831070507 73 154 0.0 0.0 0.00 0.00 0.00 93 1019.7
20260831070030 73 154 0.0 0.0 0.00 0.00 0.00 92 1019.6
20260831065518 73 154 0.0 0.0 0.00 0.00 0.00 92 1019.7
20260831065006 74 154 0.0 0.0 0.00 0.00 0.00 92 1019.6
20260831064522 74 154 0.0 0.0 0.00 0.00 0.00 92 1019.8
20260831064010 74 154 0.0 0.0 0.00 0.00 0.00 92 1019.7
20260831063014 74 154 0.0 0.0 0.00 0.00 0.00 92 1019.6
20260831062513 74 154 0.0 0.0 0.00 0.00 0.00 92 1019.8
20260831062013 74 154 0.0 0.0 0.00 0.00 0.00 92 1019.8
20260831061513 74 154 0.0 0.0 0.00 0.00 0.00 91 1019.9
20260831061010 74 154 0.0 0.0 0.00 0.00 0.00 91 1019.9
20260831060516 75 154 0.0 0.0 0.00 0.00 0.00 91 1019.8
20260831060041 75 154 0.0 0.0 0.00 0.00 0.00 91 1020.0
20260831055508 75 154 0.0 0.0 0.00 0.00 0.00 90 1019.9
20260831055010 75 154 0.0 0.0 0.00 0.00 0.00 90 1019.9
20260831054531 75 154 0.0 0.0 0.00 0.00 0.00 89 1019.8
20260831054020 75 154 0.0 0.0 0.00 0.00 0.00 89 1019.7
20260831053507 76 154 0.0 0.0 0.00 0.00 0.00 89 1019.8
20260831053030 76 154 0.0 0.0 0.00 0.00 0.00 88 1019.9
20260831052516 76 154 0.0 0.0 0.00 0.00 0.00 89 1019.8
20260831052005 75 154 0.0 0.0 0.00 0.00 0.00 89 1019.8
20260831051525 75 154 0.0 0.0 0.00 0.00 0.00 89 1019.6
20260831051014 75 154 0.0 0.0 0.00 0.00 0.00 89 1019.8
20260831050513 75 154 0.0 0.0 0.00 0.00 0.00 89 1019.8
20260831050026 75 154 0.0 0.0 0.00 0.00 0.00 89 1019.8
20260831045514 75 154 0.0 0.0 0.00 0.00 0.00 89 1019.8
20260831045018 75 154 0.0 0.0 0.00 0.00 0.00 90 1019.8
20260831044519 75 154 0.0 0.0 0.00 0.00 0.00 89 1019.6
20260831044010 75 154 0.0 0.0 0.00 0.00 0.00 90 1019.6
20260831043518 75 154 0.0 0.0 0.00 0.00 0.00 90 1019.5
20260831043032 75 154 0.0 0.0 0.00 0.00 0.00 90 1019.7
20260831042506 75 154 0.0 0.0 0.00 0.00 0.00 89 1019.8
20260831042012 75 154 0.0 0.0 0.00 0.00 0.00 89 1019.8
20260831041530 75 154 0.0 0.0 0.00 0.00 0.00 89 1019.8
20260831041020 75 154 0.0 0.0 0.00 0.00 0.00 88 1019.7
20260831040510 75 154 0.0 0.0 0.00 0.00 0.00 88 1019.9
20260831040029 75 154 0.0 0.0 0.00 0.00 0.00 88 1019.8
20260831035515 75 154 0.0 0.0 0.00 0.00 0.00 88 1019.8
20260831035008 75 154 0.0 0.0 0.00 0.00 0.00 87 1019.8
20260831034526 76 154 0.0 0.0 0.00 0.00 0.00 87 1019.9
20260831034015 76 154 0.0 0.0 0.00 0.00 0.00 87 1019.9
20260831033522 76 154 0.0 0.0 0.00 0.00 0.00 86 1019.8
20260831033022 76 154 0.0 0.0 0.00 0.00 0.00 86 1019.9
20260831032513 76 154 0.0 0.0 0.00 0.00 0.00 85 1019.9
20260831032015 76 154 0.0 0.0 0.00 0.00 0.00 85 1020.0
20260831031525 76 154 0.0 0.0 0.00 0.00 0.00 85 1020.0
20260831031009 76 154 0.0 0.0 0.00 0.00 0.00 85 1020.0
20260831030514 76 154 0.0 0.0 0.00 0.00 0.00 85 1020.1
20260831030031 77 154 0.0 0.0 0.00 0.00 0.00 84 1020.2
20260831025509 77 154 0.0 0.0 0.00 0.00 0.00 84 1020.2
20260831025014 77 154 0.0 0.0 0.00 0.00 0.00 84 1020.1
20260831024544 77 154 0.0 0.0 0.00 0.00 0.00 84 1020.2
20260831024007 77 154 0.0 0.0 0.00 0.00 0.00 83 1020.1
20260831023511 77 154 0.0 0.0 0.00 0.00 0.00 83 1020.2
20260831023031 77 154 0.0 0.0 0.00 0.00 0.00 83 1020.0
20260831022515 78 154 0.0 0.0 0.00 0.00 0.00 82 1019.9
20260831022009 78 154 0.0 0.0 0.00 0.00 0.00 83 1019.9
20260831021527 78 154 0.0 0.0 0.00 0.00 0.00 81 1019.8
20260831021016 78 154 0.0 0.0 0.00 0.00 0.00 81 1019.8
20260831020520 78 154 0.0 0.0 0.00 0.00 0.00 82 1019.8
20260831020035 78 154 0.0 0.0 0.00 0.00 0.00 81 1019.7
20260831015517 78 154 0.0 0.0 0.00 0.00 0.00 80 1019.6
20260831015019 79 154 0.0 0.0 0.00 0.00 0.00 79 1019.5
20260831014520 79 154 0.0 0.0 0.00 0.00 0.00 79 1019.6
20260831014013 79 154 0.0 0.0 0.00 0.00 0.00 79 1019.6
20260831013034 80 154 0.0 0.0 0.00 0.00 0.00 78 1019.5
20260831012513 80 154 0.0 0.0 0.00 0.00 0.00 77 1019.4
20260831012017 80 154 0.0 0.0 0.00 0.00 0.00 76 1019.4
20260831011536 80 154 0.0 0.0 0.00 0.00 0.00 76 1019.3
20260831011009 80 154 0.0 0.0 0.00 0.00 0.00 76 1019.2
20260831010511 81 154 0.0 0.0 0.00 0.00 0.00 75 1019.1
20260831010042 81 154 0.0 0.0 0.00 0.00 0.00 75 1019.0
20260831005519 81 154 0.0 0.0 0.00 0.00 0.00 74 1018.9
20260831005013 81 154 0.0 0.0 0.00 0.00 0.00 73 1018.9
20260831004528 82 154 0.0 0.0 0.00 0.00 0.00 72 1019.0
20260831004019 82 154 0.0 0.0 0.00 0.00 0.00 71 1018.9
20260831003521 83 149 0.0 0.0 0.00 0.00 0.00 70 1018.9
20260831003026 83 150 0.0 0.0 0.00 0.00 0.00 70 1018.9
20260831002515 84 147 0.0 0.0 0.00 0.00 0.00 69 1019.0
20260831002018 84 147 0.0 0.0 0.00 0.00 0.00 68 1019.0
20260831001534 84 147 0.0 0.0 0.00 0.00 0.00 66 1018.9
20260831001016 85 147 0.0 0.0 0.00 0.00 0.00 66 1019.0
20260831000801 85 147 0.0 0.0 0.00 0.00 0.00 64 1019.1
20260831000753 86 147 0.0 0.0 0.00 0.00 0.00 63 1019.2
20260831000750 86 164 0.0 1.0 0.00 0.00 0.00 62 1019.1
20260830234011 86 104 0.0 0.0 0.00 0.00 0.00 62 1019.1
20260830233514 87 153 0.0 3.0 0.00 0.00 0.00 61 1019.2
20260830233035 87 153 0.0 3.0 0.00 0.00 0.00 60 1019.1
20260830232519 87 91 1.0 3.0 0.00 0.00 0.00 60 1019.1
20260830232015 87 96 0.0 3.0 0.00 0.00 0.00 59 1019.2
20260830231506 87 158 0.0 3.0 0.00 0.00 0.00 58 1019.2
20260830231010 87 146 0.0 4.0 0.00 0.00 0.00 58 1019.2
20260830230513 87 120 2.0 4.0 0.00 0.00 0.00 58 1019.1
20260830230014 88 150 0.0 3.0 0.00 0.00 0.00 59 1019.1
20260830225507 88 100 1.0 3.0 0.00 0.00 0.00 59 1019.2
20260830225010 88 103 1.0 2.0 0.00 0.00 0.00 59 1019.1
20260830224533 88 130 0.0 4.0 0.00 0.00 0.00 59 1019.1
20260830224005 88 122 1.0 4.0 0.00 0.00 0.00 58 1018.9
20260830223506 88 145 1.0 4.0 0.00 0.00 0.00 57 1019.1
20260830223022 88 214 0.0 5.0 0.00 0.00 0.00 58 1019.1
20260830222513 88 132 1.0 5.0 0.00 0.00 0.00 58 1019.1
20260830222006 88 245 0.0 4.0 0.00 0.00 0.00 58 1019.0
20260830221516 88 73 2.0 3.0 0.00 0.00 0.00 58 1019.1
20260830221013 88 165 0.0 6.0 0.00 0.00 0.00 58 1019.1
20260830220504 88 231 2.0 6.0 0.00 0.00 0.00 56 1019.2
20260830220026 88 162 1.0 7.0 0.00 0.00 0.00 57 1019.1
20260830215507 89 103 3.0 7.0 0.00 0.00 0.00 55 1019.0
20260830215011 89 206 0.0 5.0 0.00 0.00 0.00 56 1019.1
20260830214512 89 146 2.0 5.0 0.00 0.00 0.00 55 1019.2
20260830214007 89 194 2.0 5.0 0.00 0.00 0.00 55 1019.2
20260830213512 89 107 0.0 5.0 0.00 0.00 0.00 57 1019.1
20260830213008 89 86 0.0 6.0 0.00 0.00 0.00 56 1019.1
20260830212506 89 84 2.0 6.0 0.00 0.00 0.00 55 1019.1
20260830212012 89 162 1.0 3.0 0.00 0.00 0.00 56 1019.3
20260830211530 90 188 0.0 3.0 0.00 0.00 0.00 56 1019.3
20260830211004 90 197 1.0 5.0 0.00 0.00 0.00 56 1019.2
20260830210508 90 92 0.0 6.0 0.00 0.00 0.00 56 1019.2
20260830210026 90 78 1.0 6.0 0.00 0.00 0.00 55 1019.3
20260830205504 90 233 0.0 5.0 0.00 0.00 0.00 55 1019.3
20260830205005 90 100 2.0 5.0 0.00 0.00 0.00 54 1019.5
20260830204518 90 200 2.0 5.0 0.00 0.00 0.00 55 1019.4
20260830204014 90 107 1.0 5.0 0.00 0.00 0.00 55 1019.4
20260830203504 91 109 2.0 5.0 0.00 0.00 0.00 54 1019.6
20260830203018 90 130 2.0 6.0 0.00 0.00 0.00 53 1019.7
20260830202512 90 104 1.0 6.0 0.00 0.00 0.00 53 1019.7
20260830202015 90 143 3.0 6.0 0.00 0.00 0.00 53 1019.7
20260830201547 90 109 0.0 4.0 0.00 0.00 0.00 56 1019.7
20260830201011 90 131 0.0 4.0 0.00 0.00 0.00 57 1019.8
20260830200511 89 223 0.0 5.0 0.00 0.00 0.00 56 1019.9
20260830200007 89 84 2.0 5.0 0.00 0.00 0.00 56 1020.0
20260830195505 89 115 2.0 7.0 0.00 0.00 0.00 56 1020.1
20260830195011 90 209 0.0 7.0 0.00 0.00 0.00 59 1020.2
20260830194533 90 101 2.0 9.0 0.00 0.00 0.00 57 1020.2
20260830194003 91 137 3.0 9.0 0.00 0.00 0.00 57 1020.3
20260830193508 91 164 2.0 5.0 0.00 0.00 0.00 55 1020.3
20260830193036 91 110 1.0 6.0 0.00 0.00 0.00 58 1020.4
20260830192504 90 229 0.0 6.0 0.00 0.00 0.00 58 1020.5
20260830192005 90 108 2.0 7.0 0.00 0.00 0.00 59 1020.5
20260830191533 90 217 0.0 7.0 0.00 0.00 0.00 60 1020.6
20260830191017 90 134 0.0 5.0 0.00 0.00 0.00 57 1020.4
20260830190503 90 143 1.0 6.0 0.00 0.00 0.00 59 1020.7
20260830190023 89 122 2.0 6.0 0.00 0.00 0.00 60 1020.7
20260830185513 90 162 2.0 4.0 0.00 0.00 0.00 61 1020.7
20260830185016 89 219 0.0 5.0 0.00 0.00 0.00 61 1020.8
20260830184515 89 98 2.0 6.0 0.00 0.00 0.00 62 1020.8
20260830184009 88 216 1.0 6.0 0.00 0.00 0.00 63 1020.8
20260830183515 88 140 3.0 6.0 0.00 0.00 0.00 61 1020.9
20260830183008 89 118 1.0 6.0 0.00 0.00 0.00 61 1021.0
20260830182508 89 127 2.0 6.0 0.00 0.00 0.00 63 1021.0
20260830182012 89 95 2.0 7.0 0.00 0.00 0.00 62 1021.0
20260830181537 88 144 1.0 7.0 0.00 0.00 0.00 64 1021.0
20260830181006 89 102 4.0 6.0 0.00 0.00 0.00 62 1021.2
20260830180511 89 134 1.0 11.0 0.00 0.00 0.00 62 1021.3
20260830180032 88 79 3.0 11.0 0.00 0.00 0.00 65 1021.4
20260830175504 88 106 2.0 5.0 0.00 0.00 0.00 65 1021.3
20260830175007 87 234 1.0 6.0 0.00 0.00 0.00 65 1021.4
20260830174528 87 113 1.0 6.0 0.00 0.00 0.00 65 1021.3
20260830174015 87 86 4.0 6.0 0.00 0.00 0.00 66 1021.4
20260830173506 87 89 1.0 6.0 0.00 0.00 0.00 65 1021.6
20260830173030 88 84 3.0 6.0 0.00 0.00 0.00 65 1021.6
20260830172514 87 203 2.0 8.0 0.00 0.00 0.00 65 1021.7
20260830172014 87 125 3.0 8.0 0.00 0.00 0.00 66 1021.7
20260830171517 87 79 3.0 8.0 0.00 0.00 0.00 65 1021.8
20260830171010 87 102 4.0 8.0 0.00 0.00 0.00 66 1021.8
20260830170513 87 138 3.0 6.0 0.00 0.00 0.00 66 1021.9
20260830170014 86 108 1.0 6.0 0.00 0.00 0.00 67 1021.9
20260830165509 86 96 1.0 6.0 0.00 0.00 0.00 67 1022.0
20260830165013 86 146 4.0 6.0 0.00 0.00 0.00 68 1022.0
20260830164536 86 142 2.0 5.0 0.00 0.00 0.00 68 1021.9
20260830164007 86 95 3.0 5.0 0.00 0.00 0.00 68 1021.9
20260830163510 85 82 2.0 5.0 0.00 0.00 0.00 69 1022.2
20260830163034 84 126 0.0 6.0 0.00 0.00 0.00 74 1022.2
20260830162507 84 84 2.0 6.0 0.00 0.00 0.00 71 1022.2
20260830162008 84 108 0.0 3.0 0.00 0.00 0.00 72 1022.2
20260830161527 84 106 1.0 3.0 0.00 0.00 0.00 72 1022.1
20260830161013 85 143 1.0 3.0 0.00 0.00 0.00 71 1022.3
20260830160507 84 172 0.0 3.0 0.00 0.00 0.00 73 1022.4
20260830160024 84 87 1.0 3.0 0.00 0.00 0.00 73 1022.4
20260830155515 84 141 0.0 2.0 0.00 0.00 0.00 74 1022.4
20260830155014 83 148 1.0 2.0 0.00 0.00 0.00 75 1022.3
20260830154523 83 105 0.0 2.0 0.00 0.00 0.00 74 1022.3
20260830154011 83 134 0.0 3.0 0.00 0.00 0.00 75 1022.4
20260830153516 83 117 0.0 4.0 0.00 0.00 0.00 75 1022.3